{"data":{"norad_id":37677,"epoch":"2026-05-25T00:43:36.960960Z","epoch_age_seconds":79272,"freshness":"FRESH","line1":"1 37677U 11026A   26145.03028890 -.00000191  00000+0  00000+0 0  9998","line2":"2 37677   0.9893  84.4416 0003181 341.8105 272.7761  1.00273141 54766","mean_motion":1.00273141,"eccentricity":0.0003181,"inclination_deg":0.9893,"raan_deg":84.4416,"arg_perigee_deg":341.8105,"mean_anomaly_deg":272.7761,"bstar":0,"rev_number":5476,"period_min":1436.0774836005,"perigee_km":35772.802349133,"apogee_km":35799.627309767,"semimajor_km":42164.35182945,"source":"CELESTRAK","updated_at":"2026-05-25T13:38:13.901577Z"}}